Location: Cheching
(60.0667°N, 164.2167°W)
Time: 21:03:49
(UTC+00:00)

NOAA 15 - Pass Details

Date: 24 January 2021
Orbit: 798 x 812 km, 98.7° (Epoch: 07 March)

Event Time Altitude Azimuth Distance (km) Brightness Sun altitude
Rises 06:05:54 0° 185° (S) 3,304 7.8 -23.6°
Reaches altitude 10° 06:08:22 10° 192° (SSW) 2,380 7.1 -23.9°
Maximum altitude 06:13:19 41° 263° (W) 1,159 5.9 -24.5°
Drops below altitude 10° 06:18:20 10° 333° (NNW) 2,404 7.4 -25.1°
Sets 06:20:50 0° 341° (NNW) 3,342 8.1 -25.4°
